QPF
0.00 0.00 0.00 0.00 0.00 0.00 0.00 0.00 0.01 0.01 0.00 0.00 0.00 0.00 0.00 0.00 0.00 0.00 0.00 0.00 0.00 0.00 0.00 0.00 0.00 0.00 0.00 0.00 0.00 0.00 0.00 0.00 0.01 0.01 0.01 0.02 0.02 0.03
0.00 0.00 0.00 0.00 0.00 0.00 0.01 0.01 0.01 0.01 0.01 0.00 0.00 0.00 0.00 0.00 0.00 0.00 0.00 0.00 0.00 0.00 0.00 0.00 0.00 0.00 0.00 0.00 0.00 0.00 0.01 0.01 0.01 0.01 0.01 0.02 0.02 0.03
0.00 0.00 0.00 0.01 0.01 0.01 0.01 0.01 0.01 0.01 0.01 0.01 0.00 0.00 0.00 0.00 0.00 0.00 0.00 0.00 0.00 0.00 0.00 0.00 0.00 0.00 0.00 0.00 0.00 0.00 0.01 0.01 0.01 0.01 0.01 0.02 0.02 0.02
0.00 0.01 0.01 0.01 0.01 0.01 0.01 0.01 0.01 0.01 0.01 0.01 0.00 0.00 0.00 0.00 0.00 0.00 0.00 0.00 0.00 0.00 0.00 0.00 0.00 0.00 0.00 0.00 0.00 0.00 0.00 0.00 0.00 0.01 0.01 0.01 0.01 0.02
0.01 0.01 0.01 0.00 0.01 0.01 0.01 0.01 0.01 0.00 0.00 0.01 0.00 0.00 0.00 0.00 0.00 0.00 0.00 0.00 0.00 0.00 0.00 0.00 0.00 0.00 0.00 0.00 0.00 0.00 0.00 0.00 0.00 0.00 0.01 0.01 0.01 0.01
0.00 0.01 0.01 0.01 0.01 0.01 0.01 0.01 0.01 0.01 0.00 0.01 0.00 0.00 0.00 0.00 0.00 0.00 0.00 0.00 0.00 0.00 0.00 0.00 0.00 0.00 0.00 0.00 0.00 0.00 0.00 0.00 0.00 0.00 0.01 0.01 0.01 0.01
0.01 0.01 0.01 0.01 0.01 0.01 0.01 0.01 0.01 0.01 0.01 0.01 0.01 0.00 0.00 0.00 0.00 0.00 0.00 0.00 0.00 0.00 0.00 0.00 0.00 0.00 0.00 0.00 0.00 0.00 0.00 0.00 0.00 0.01 0.01 0.01 0.01 0.01
0.01 0.01 0.01 0.01 0.01 0.01 0.01 0.01 0.01 0.01 0.01 0.01 0.01 0.01 0.00 0.00 0.00 0.00 0.00 0.00 0.00 0.00 0.00 0.00 0.00 0.00 0.00 0.00 0.00 0.00 0.00 0.00 0.00 0.01 0.01 0.01 0.01 0.01
0.01 0.01 0.01 0.01 0.01 0.01 0.01 0.01 0.01 0.01 0.01 0.01 0.01 0.00 0.00 0.00 0.00 0.00 0.00 0.00 0.00 0.00 0.00 0.00 0.00 0.00 0.00 0.00 0.00 0.00 0.00 0.00 0.00 0.01 0.01 0.01 0.01 0.01
0.01 0.00 0.00 0.00 0.00 0.00 0.01 0.01 0.01 0.01 0.01 0.01 0.00 0.00 0.00 0.00 0.01 0.01 0.01 0.01 0.00 0.00 0.00 0.00 0.00 0.00 0.00 0.00 0.00 0.00 0.00 0.00 0.00 0.00 0.00 0.01 0.01 0.01
0.01 0.00 0.01 0.01 0.01 0.01 0.01 0.01 0.01 0.01 0.01 0.01 0.01 0.01 0.01 0.01 0.01 0.01 0.01 0.01 0.01 0.01 0.01 0.00 0.00 0.00 0.00 0.00 0.00 0.00 0.00 0.00 0.00 0.00 0.01 0.01 0.01 0.01
0.01 0.01 0.02 0.01 0.02 0.02 0.01 0.01 0.01 0.01 0.01 0.01 0.01 0.01 0.01 0.01 0.02 0.01 0.01 0.02 0.02 0.01 0.01 0.01 0.00 0.00 0.00 0.00 0.00 0.00 0.00 0.00 0.00 0.00 0.01 0.01 0.01 0.01
0.01 0.01 0.01 0.02 0.02 0.02 0.02 0.01 0.01 0.01 0.01 0.01 0.01 0.02 0.02 0.02 0.02 0.02 0.02 0.02 0.02 0.01 0.01 0.01 0.01 0.01 0.01 0.00 0.00 0.00 0.00 0.00 0.00 0.00 0.01 0.01 0.01 0.01
0.01 0.01 0.01 0.02 0.02 0.01 0.01 0.02 0.03 0.03 0.02 0.02 0.02 0.02 0.02 0.02 0.02 0.02 0.01 0.01 0.01 0.01 0.01 0.01 0.02 0.01 0.01 0.01 0.00 0.00 0.00 0.00 0.00 0.01 0.01 0.01 0.01 0.01
0.02 0.02 0.02 0.02 0.02 0.02 0.02 0.03 0.03 0.03 0.03 0.04 0.03 0.03 0.03 0.03 0.03 0.03 0.03 0.03 0.03 0.02 0.02 0.01 0.01 0.01 0.01 0.01 0.01 0.00 0.00 0.00 0.00 0.01 0.01 0.01 0.01 0.01
0.03 0.03 0.03 0.03 0.03 0.03 0.04 0.04 0.03 0.03 0.04 0.04 0.04 0.04 0.03 0.03 0.03 0.03 0.03 0.03 0.03 0.02 0.02 0.01 0.01 0.01 0.01 0.01 0.01 0.00 0.00 0.00 0.00 0.00 0.01 0.01 0.01 0.01
0.03 0.03 0.03 0.03 0.03 0.03 0.03 0.04 0.04 0.04 0.04 0.04 0.05 0.04 0.04 0.03 0.03 0.03 0.03 0.03 0.02 0.02 0.01 0.01 0.01 0.01 0.01 0.01 0.01 0.00 0.00 0.00 0.00 0.00 0.00 0.01 0.01 0.01
0.03 0.03 0.03 0.03 0.04 0.04 0.04 0.05 0.04 0.05 0.05 0.05 0.05 0.05 0.05 0.04 0.04 0.03 0.03 0.02 0.02 0.01 0.01 0.01 0.01 0.01 0.01 0.01 0.00 0.00 0.00 0.00 0.00 0.00 0.00 0.01 0.01 0.00
0.04 0.03 0.04 0.04 0.05 0.06 0.06 0.06 0.05 0.05 0.05 0.04 0.04 0.04 0.04 0.04 0.04 0.03 0.03 0.03 0.03 0.02 0.02 0.01 0.01 0.02 0.02 0.01 0.00 0.00 0.01 0.00 0.00 0.00 0.00 0.00 0.00 0.00
0.05 0.05 0.05 0.05 0.05 0.05 0.05 0.04 0.04 0.04 0.04 0.03 0.03 0.02 0.02 0.02 0.02 0.02 0.02 0.02 0.02 0.02 0.02 0.02 0.01 0.01 0.01 0.01 0.01 0.00 0.01 0.01 0.01 0.01 0.01 0.00 0.00 0.00
0.05 0.05 0.04 0.04 0.04 0.04 0.04 0.04 0.03 0.03 0.03 0.02 0.02 0.01 0.02 0.02 0.02 0.02 0.01 0.02 0.02 0.02 0.02 0.01 0.01 0.01 0.01 0.02 0.02 0.01 0.01 0.01 0.02 0.02 0.02 0.01 0.01 0.01
0.04 0.03 0.03 0.03 0.03 0.03 0.03 0.03 0.03 0.02 0.02 0.02 0.02 0.02 0.02 0.02 0.02 0.02 0.02 0.02 0.02 0.02 0.01 0.01 0.01 0.01 0.02 0.02 0.01 0.01 0.01 0.01 0.01 0.01 0.02 0.02 0.04 0.04
0.02 0.02 0.02 0.02 0.03 0.03 0.03 0.03 0.03 0.02 0.02 0.02 0.02 0.02 0.02 0.02 0.02 0.02 0.02 0.02 0.02 0.01 0.01 0.01 0.02 0.02 0.02 0.01 0.01 0.01 0.01 0.01 0.01 0.01 0.01 0.02 0.02 0.03
MSLP
1006.74 1007.05 1007.34 1007.59 1007.79 1007.94 1008.05 1008.11 1008.15 1008.19 1008.24 1008.33 1008.45 1008.61 1008.81 1009.02 1009.24 1009.44 1009.62 1009.77 1009.88 1009.94 1009.95 1009.91 1009.83 1009.71 1009.54 1009.33 1009.08 1008.78 1008.45 1008.08 1007.67 1007.25 1006.81 1006.39 1005.98 1005.61
1005.70 1006.03 1006.34 1006.63 1006.89 1007.11 1007.29 1007.44 1007.56 1007.68 1007.81 1007.96 1008.13 1008.33 1008.54 1008.76 1008.96 1009.14 1009.29 1009.40 1009.46 1009.48 1009.46 1009.41 1009.33 1009.22 1009.08 1008.90 1008.69 1008.43 1008.13 1007.78 1007.38 1006.95 1006.48 1006.01 1005.54 1005.11
1004.64 1004.99 1005.33 1005.67 1005.98 1006.27 1006.53 1006.76 1006.97 1007.18 1007.40 1007.62 1007.85 1008.09 1008.32 1008.54 1008.73 1008.87 1008.98 1009.03 1009.04 1009.00 1008.94 1008.86 1008.77 1008.66 1008.54 1008.40 1008.23 1008.02 1007.76 1007.44 1007.06 1006.63 1006.15 1005.65 1005.14 1004.65
1003.60 1003.97 1004.35 1004.73 1005.11 1005.47 1005.80 1006.12 1006.43 1006.72 1007.02 1007.31 1007.61 1007.89 1008.15 1008.37 1008.54 1008.66 1008.72 1008.72 1008.66 1008.58 1008.47 1008.36 1008.24 1008.12 1008.01 1007.89 1007.75 1007.57 1007.34 1007.06 1006.70 1006.28 1005.81 1005.30 1004.76 1004.24
1002.62 1003.02 1003.45 1003.89 1004.32 1004.75 1005.16 1005.56 1005.95 1006.33 1006.70 1007.06 1007.41 1007.74 1008.02 1008.25 1008.42 1008.52 1008.54 1008.49 1008.40 1008.26 1008.10 1007.94 1007.79 1007.66 1007.53 1007.41 1007.28 1007.12 1006.92 1006.65 1006.32 1005.92 1005.46 1004.95 1004.41 1003.86
1001.75 1002.20 1002.68 1003.17 1003.67 1004.16 1004.64 1005.11 1005.57 1006.02 1006.46 1006.88 1007.28 1007.64 1007.96 1008.21 1008.38 1008.46 1008.46 1008.39 1008.25 1008.07 1007.87 1007.67 1007.48 1007.31 1007.15 1007.01 1006.86 1006.70 1006.50 1006.24 1005.93 1005.55 1005.10 1004.60 1004.08 1003.53
1001.03 1001.54 1002.08 1002.63 1003.18 1003.73 1004.27 1004.79 1005.31 1005.81 1006.30 1006.77 1007.21 1007.61 1007.95 1008.22 1008.40 1008.49 1008.48 1008.39 1008.24 1008.03 1007.79 1007.55 1007.31 1007.09 1006.89 1006.71 1006.52 1006.33 1006.11 1005.85 1005.54 1005.17 1004.74 1004.27 1003.76 1003.24
1000.49 1001.07 1001.66 1002.27 1002.88 1003.47 1004.06 1004.62 1005.18 1005.72 1006.24 1006.74 1007.21 1007.64 1008.00 1008.28 1008.48 1008.57 1008.57 1008.49 1008.32 1008.09 1007.83 1007.56 1007.27 1007.00 1006.75 1006.50 1006.27 1006.03 1005.77 1005.48 1005.16 1004.80 1004.39 1003.95 1003.48 1003.00
1000.16 1000.80 1001.45 1002.11 1002.76 1003.40 1004.01 1004.61 1005.19 1005.74 1006.28 1006.80 1007.28 1007.71 1008.08 1008.37 1008.58 1008.69 1008.70 1008.62 1008.46 1008.23 1007.95 1007.65 1007.33 1007.01 1006.70 1006.39 1006.09 1005.79 1005.48 1005.16 1004.82 1004.45 1004.07 1003.66 1003.23 1002.80
1000.05 1000.74 1001.44 1002.15 1002.83 1003.50 1004.14 1004.75 1005.33 1005.89 1006.42 1006.93 1007.40 1007.82 1008.18 1008.47 1008.68 1008.79 1008.81 1008.74 1008.59 1008.37 1008.10 1007.78 1007.44 1007.09 1006.72 1006.36 1006.00 1005.63 1005.27 1004.91 1004.54 1004.16 1003.78 1003.40 1003.02 1002.64
1000.14 1000.88 1001.62 1002.36 1003.07 1003.75 1004.40 1005.01 1005.59 1006.13 1006.65 1007.12 1007.56 1007.96 1008.29 1008.56 1008.75 1008.85 1008.88 1008.83 1008.69 1008.48 1008.22 1007.91 1007.56 1007.19 1006.80 1006.39 1005.97 1005.56 1005.14 1004.73 1004.32 1003.93 1003.55 1003.19 1002.84 1002.51
1000.42 1001.19 1001.96 1002.71 1003.44 1004.13 1004.78 1005.38 1005.94 1006.45 1006.93 1007.36 1007.75 1008.09 1008.38 1008.61 1008.77 1008.87 1008.89 1008.84 1008.72 1008.54 1008.30 1008.01 1007.68 1007.30 1006.90 1006.46 1006.01 1005.55 1005.09 1004.63 1004.19 1003.77 1003.38 1003.01 1002.68 1002.37
1000.84 1001.62 1002.40 1003.16 1003.89 1004.58 1005.21 1005.80 1006.32 1006.80 1007.23 1007.61 1007.94 1008.22 1008.45 1008.63 1008.75 1008.82 1008.83 1008.79 1008.69 1008.53 1008.33 1008.07 1007.77 1007.41 1007.01 1006.57 1006.10 1005.60 1005.10 1004.60 1004.11 1003.65 1003.23 1002.84 1002.51 1002.20
1001.35 1002.13 1002.91 1003.67 1004.38 1005.05 1005.66 1006.22 1006.71 1007.14 1007.52 1007.84 1008.11 1008.32 1008.49 1008.61 1008.69 1008.73 1008.73 1008.69 1008.60 1008.48 1008.31 1008.09 1007.82 1007.50 1007.12 1006.68 1006.20 1005.68 1005.14 1004.59 1004.05 1003.54 1003.07 1002.65 1002.28 1001.96
1001.92 1002.68 1003.44 1004.17 1004.86 1005.50 1006.08 1006.59 1007.04 1007.43 1007.75 1008.02 1008.23 1008.39 1008.50 1008.58 1008.62 1008.63 1008.61 1008.56 1008.49 1008.39 1008.26 1008.08 1007.84 1007.55 1007.18 1006.76 1006.27 1005.73 1005.15 1004.55 1003.96 1003.39 1002.85 1002.38 1001.96 1001.60
1002.50 1003.24 1003.96 1004.65 1005.30 1005.89 1006.42 1006.89 1007.30 1007.64 1007.92 1008.14 1008.30 1008.42 1008.50 1008.53 1008.54 1008.53 1008.50 1008.45 1008.39 1008.30 1008.18 1008.02 1007.81 1007.53 1007.18 1006.76 1006.26 1005.69 1005.08 1004.43 1003.78 1003.14 1002.53 1001.99 1001.50 1001.09
1003.08 1003.76 1004.43 1005.07 1005.66 1006.20 1006.68 1007.10 1007.46 1007.77 1008.01 1008.21 1008.35 1008.44 1008.49 1008.51 1008.51 1008.48 1008.44 1008.38 1008.31 1008.21 1008.09 1007.93 1007.72 1007.44 1007.08 1006.65 1006.12 1005.53 1004.87 1004.18 1003.46 1002.75 1002.08 1001.46 1000.91 1000.44
1003.64 1004.27 1004.87 1005.44 1005.96 1006.44 1006.86 1007.24 1007.56 1007.84 1008.06 1008.24 1008.38 1008.47 1008.52 1008.54 1008.53 1008.49 1008.44 1008.36 1008.27 1008.15 1008.00 1007.81 1007.56 1007.25 1006.87 1006.40 1005.84 1005.21 1004.51 1003.77 1003.00 1002.23 1001.49 1000.81 1000.20 999.67
1004.19 1004.76 1005.29 1005.78 1006.24 1006.64 1007.01 1007.33 1007.63 1007.88 1008.10 1008.29 1008.43 1008.54 1008.61 1008.63 1008.62 1008.58 1008.50 1008.40 1008.26 1008.09 1007.89 1007.64 1007.34 1006.98 1006.54 1006.02 1005.43 1004.76 1004.02 1003.24 1002.42 1001.61 1000.82 1000.08 999.41 998.83
1004.74 1005.25 1005.71 1006.13 1006.50 1006.84 1007.16 1007.44 1007.70 1007.95 1008.17 1008.36 1008.53 1008.66 1008.75 1008.79 1008.78 1008.73 1008.63 1008.48 1008.29 1008.05 1007.78 1007.45 1007.07 1006.64 1006.14 1005.57 1004.93 1004.22 1003.45 1002.64 1001.80 1000.95 1000.13 999.34 998.63 998.00
1005.32 1005.76 1006.15 1006.49 1006.81 1007.09 1007.35 1007.59 1007.83 1008.07 1008.29 1008.50 1008.69 1008.84 1008.94 1008.99 1008.99 1008.92 1008.78 1008.59 1008.33 1008.02 1007.65 1007.24 1006.78 1006.27 1005.71 1005.09 1004.41 1003.67 1002.88 1002.06 1001.20 1000.34 999.48 998.67 997.91 997.23
1005.91 1006.29 1006.62 1006.91 1007.16 1007.38 1007.60 1007.81 1008.03 1008.25 1008.47 1008.69 1008.88 1009.04 1009.16 1009.21 1009.19 1009.10 1008.93 1008.68 1008.36 1007.97 1007.53 1007.04 1006.50 1005.93 1005.31 1004.65 1003.94 1003.19 1002.40 1001.56 1000.70 999.83 998.96 998.11 997.30 996.56
1006.52 1006.84 1007.12 1007.35 1007.56 1007.74 1007.92 1008.10 1008.29 1008.49 1008.70 1008.91 1009.09 1009.25 1009.36 1009.39 1009.36 1009.23 1009.02 1008.72 1008.35 1007.90 1007.40 1006.85 1006.26 1005.64 1004.99 1004.31 1003.59 1002.83 1002.04 1001.21 1000.35 999.46 998.56 997.67 996.81 996.00
Thickness
5621 5616 5611 5607 5602 5597 5593 5588 5582 5581 5582 5579 5570 5563 5555 5549 5543 5537 5532 5526 5520 5515 5510 5505 5500 5496 5491 5486 5482 5476 5471 5466 5461 5456 5452 5447 5444 5440
5617 5612 5607 5602 5597 5591 5586 5581 5576 5573 5572 5572 5564 5556 5548 5541 5534 5529 5523 5517 5511 5506 5501 5496 5490 5485 5481 5476 5470 5465 5459 5454 5448 5443 5438 5433 5428 5424
5612 5607 5603 5597 5591 5586 5580 5575 5570 5564 5562 5562 5554 5547 5539 5532 5525 5519 5514 5508 5503 5497 5492 5486 5480 5475 5470 5464 5459 5453 5447 5441 5435 5429 5423 5418 5413 5408
5608 5602 5597 5591 5586 5581 5575 5569 5564 5558 5554 5551 5546 5538 5530 5523 5517 5510 5504 5499 5494 5488 5482 5476 5471 5465 5459 5453 5447 5441 5434 5427 5421 5414 5408 5403 5398 5393
5603 5598 5593 5586 5581 5575 5569 5564 5558 5552 5546 5541 5537 5529 5521 5513 5506 5501 5495 5490 5484 5478 5472 5466 5461 5455 5448 5442 5435 5428 5421 5414 5408 5401 5394 5388 5383 5380
5597 5592 5587 5582 5577 5570 5564 5558 5551 5544 5538 5532 5526 5519 5511 5503 5497 5492 5487 5481 5475 5469 5463 5456 5450 5444 5437 5430 5424 5416 5408 5401 5394 5387 5381 5376 5371 5367
5589 5585 5580 5575 5570 5564 5558 5552 5544 5537 5530 5523 5517 5510 5502 5494 5489 5484 5478 5472 5466 5459 5453 5447 5441 5435 5427 5420 5411 5403 5396 5389 5382 5376 5370 5365 5360 5356
5581 5577 5572 5565 5560 5554 5549 5544 5538 5531 5524 5517 5511 5503 5498 5489 5481 5473 5467 5460 5456 5451 5442 5437 5429 5424 5417 5409 5400 5391 5384 5377 5371 5365 5359 5354 5350 5346
5573 5568 5562 5557 5551 5545 5540 5533 5527 5521 5516 5512 5504 5498 5490 5482 5472 5464 5456 5450 5446 5439 5429 5427 5419 5412 5405 5397 5388 5380 5373 5366 5360 5354 5349 5344 5340 5337
5563 5559 5554 5549 5543 5537 5530 5524 5518 5512 5505 5500 5495 5488 5480 5472 5464 5455 5447 5438 5432 5425 5417 5412 5408 5400 5393 5385 5378 5370 5362 5355 5349 5344 5339 5335 5331 5328
5553 5549 5544 5539 5534 5527 5520 5513 5507 5501 5493 5486 5480 5474 5467 5459 5451 5442 5433 5425 5420 5414 5405 5398 5395 5388 5381 5375 5368 5359 5352 5345 5339 5334 5330 5326 5323 5320
5541 5537 5532 5528 5522 5517 5511 5505 5498 5491 5482 5475 5467 5461 5454 5447 5439 5433 5424 5416 5409 5402 5395 5385 5379 5371 5368 5365 5357 5350 5343 5337 5331 5326 5322 5319 5316 5313
5530 5526 5521 5515 5510 5505 5500 5496 5490 5481 5472 5464 5457 5449 5442 5435 5427 5420 5412 5404 5397 5390 5382 5371 5364 5356 5350 5349 5346 5340 5334 5329 5324 5320 5316 5313 5309 5306
5519 5514 5509 5503 5498 5492 5488 5483 5476 5468 5460 5452 5445 5438 5431 5424 5416 5408 5400 5392 5385 5377 5369 5359 5352 5345 5338 5333 5333 5331 5325 5320 5317 5314 5310 5307 5304 5301
5506 5501 5495 5490 5484 5479 5474 5468 5462 5455 5448 5441 5434 5427 5420 5412 5403 5395 5387 5379 5372 5364 5357 5349 5341 5334 5327 5322 5321 5319 5316 5313 5310 5306 5303 5300 5298 5297
5490 5485 5480 5475 5470 5465 5460 5454 5448 5443 5437 5430 5422 5414 5406 5398 5391 5384 5376 5369 5361 5355 5346 5339 5331 5324 5319 5315 5311 5309 5306 5304 5303 5299 5296 5294 5292 5292
5477 5471 5466 5462 5457 5452 5446 5440 5434 5428 5422 5416 5409 5402 5393 5386 5379 5372 5365 5357 5352 5346 5339 5331 5323 5317 5312 5308 5305 5303 5301 5298 5295 5292 5289 5288 5289 5289
5466 5462 5457 5452 5447 5441 5435 5428 5422 5416 5410 5403 5396 5389 5382 5375 5368 5361 5354 5348 5342 5336 5330 5323 5316 5311 5307 5304 5300 5297 5294 5292 5289 5285 5283 5282 5285 5286
5456 5452 5447 5442 5436 5429 5423 5417 5410 5404 5397 5391 5384 5378 5371 5364 5358 5351 5345 5339 5333 5327 5321 5314 5308 5303 5300 5300 5298 5291 5287 5285 5282 5281 5280 5279 5280 5283
5444 5440 5436 5430 5423 5417 5411 5405 5398 5391 5385 5379 5373 5367 5361 5354 5348 5342 5336 5330 5324 5318 5312 5307 5301 5295 5290 5288 5286 5285 5281 5278 5277 5277 5277 5276 5277 5279
5432 5428 5423 5417 5411 5405 5399 5392 5386 5381 5374 5368 5362 5356 5351 5345 5339 5333 5327 5320 5315 5310 5305 5300 5294 5286 5281 5277 5277 5280 5279 5276 5272 5271 5271 5272 5274 5277
5419 5414 5409 5404 5398 5393 5387 5381 5375 5369 5363 5357 5352 5347 5342 5336 5330 5323 5318 5312 5307 5302 5296 5292 5286 5281 5277 5274 5273 5273 5273 5273 5271 5269 5268 5267 5267 5271
5407 5402 5397 5391 5386 5381 5375 5370 5364 5358 5353 5348 5343 5338 5332 5326 5320 5314 5309 5303 5298 5293 5289 5285 5281 5277 5273 5270 5268 5268 5267 5267 5268 5268 5269 5268 5267 5267